STARLINK-1931, 46790

Orbit data source: Space-Track

STARLINK-1931, 46790 is a payload satellite owned by SpaceX/Seattle (US) in LEO that was launched on Sat, 24 Oct 2020 UTC via an FALCON 9 launch vehicle from the Air Force Eastern Test Range (AFETR). Payload-class satellites include a variety of spacecraft equipped with specific instruments for various scientific and technological missions. These include communications satellites like Starlink; space stations such as the ISS; scientific satellites like the Hubble; Earth observation satellites from companies like Planet Labs, Umbra, and HawkEye 360; GPS; miniature CubeSats for education and research; and military/defense satellites.

Loading next visibility...
Identifier
46790, 2020-074BD
Orbit
LEO
Country
Flag of USUS
Related business
Manufacturer
SpaceX/Seattle
Mission
Partially operational Commercial Communications
Bus & Motor
STARLINK, Unknown motor
Mass
260 kg wet, ~248 kg dry
Launch date (UTC)
2020-10-24 (6 years ago)
Launch vehicle
FALCON 9
Launch site
Air Force Eastern Test Range (AFETR)
Object type
Payload
Rocket body
Debris
Shape & HBR
Box + 1 Pan, 10.1 m
Radar Cross Section
13.562 m², Large (>1 m²)

Expand to show TLE details & history
Last TLE update: 7 hours ago

TLE from 7 hours ago
0 STARLINK-1931
1 46790U 20074BD  26126.33335648  .00019524  00000-0  10996-3 0  9990
2 46790  53.0413 357.5501 0004392 188.0560 284.8881 15.79252701  5739
Epoch: 2026-05-06T08:00Z
TLE epoch observation values (Epoch: 2026-05-06T08:00:01.999Z)
Latitude
47.55037°
Longitude
138.46664°
Altitude
337.031 km
Speed
7.713 km/s
True Right ascension
08h 10m 40s
True Declination
47° 22' 06"
Sunlit
Object was in daylight at epoch
Visualization orbit readout
Latitude
Unknown
Longitude
Unknown
Altitude
Unknown
Speed
Unknown
Apparent Right ascension
Unknown
Apparent Declination
Unknown
Sunlit
N/A
Visualization observer readout
Local Sidereal Time
22:30:29
Azimuth
Unknown
Elevation
Unknown
Doppler factor
Unknown
Orbital elements
Apogee altitude
335.786 km
Perigee altitude
329.891 km
Semi-major axis
6,710.975 km
Eccentricity
0.00044
Inclination
53.0413°
RAAN
357.5501°
Arg. of periapsis
188.056°
True anomaly
284.83945°
Mean anomaly
284.8881°
Eccentric anomaly
284.86378°
Mean motion
3.94789 °/min
Orbital period
91.19 mins
BSTAR
0.00010996
Loading maneuver chart data...
Computing Atmospheric mass density...

Documentation

Showing up to 5 results
|